When you browse on this site, cookies collect data to enhance your experience and personalize the content and advertising you see.
Visit our Privacy Policy to learn more. By continuing to use the site, you agree to this use of cookies and data.
  • In Deutschland
  • Länderverzeichnis
  • Für 7 Tage
  • Wassertemperatur
  • Wetterkarte
  • Widgets
  • user-avatar
    Anmelden

    Stündliche Wetter Ålesund

    Heute, 31 März, Dienstag

    Zeit Temperatur Niederschläge Wind Luftdruck Luftfeuchtigkeit
    00:00 -2°C° 0 mm 7 m/S 766 mmHg 93%
    01:00 -2°C° 0.1 mm 7 m/S 766 mmHg 93%
    02:00 -2°C° 0.1 mm 8 m/S 765 mmHg 92%
    03:00 -2°C° 0.1 mm 8 m/S 764 mmHg 91%
    04:00 -2°C° 0.1 mm 8 m/S 764 mmHg 92%
    05:00 -1°C° 0.1 mm 8 m/S 763 mmHg 93%
    06:00 -1°C° 0 mm 8 m/S 763 mmHg 95%
    07:00 0°C° 0.2 mm 8 m/S 762 mmHg 96%
    08:00 0°C° 0.2 mm 8 m/S 761 mmHg 96%
    09:00 +1°C° 0.2 mm 8 m/S 761 mmHg 97%
    10:00 +1°C° 0.3 mm 8 m/S 760 mmHg 97%
    11:00 +2°C° 0.3 mm 7 m/S 760 mmHg 97%
    12:00 +2°C° 0.3 mm 7 m/S 760 mmHg 97%
    13:00 +2°C° 0.9 mm 6 m/S 759 mmHg 98%
    14:00 +2°C° 0.9 mm 6 m/S 759 mmHg 98%
    15:00 +2°C° 0.9 mm 6 m/S 759 mmHg 98%
    16:00 +2°C° 0.8 mm 5 m/S 758 mmHg 98%
    17:00 +2°C° 0.8 mm 5 m/S 758 mmHg 98%
    18:00 +2°C° 0.8 mm 5 m/S 758 mmHg 98%
    19:00 +3°C° 0.8 mm 4 m/S 758 mmHg 98%
    20:00 +3°C° 0.8 mm 4 m/S 757 mmHg 98%
    21:00 +3°C° 0.8 mm 4 m/S 757 mmHg 99%
    22:00 +3°C° 1.2 mm 4 m/S 756 mmHg 98%
    23:00 +3°C° 1.2 mm 4 m/S 756 mmHg 98%

    Morgen, 1 April, Mittwoch

    Zeit Temperatur Niederschläge Wind Luftdruck Luftfeuchtigkeit
    00:00 +3°C° 1.2 mm 4 m/S 755 mmHg 98%
    01:00 +2°C° 1.3 mm 5 m/S 754 mmHg 98%
    02:00 +2°C° 1.3 mm 5 m/S 753 mmHg 98%
    03:00 +2°C° 1.3 mm 6 m/S 752 mmHg 98%
    04:00 +2°C° 1.4 mm 6 m/S 751 mmHg 98%
    05:00 +2°C° 1.4 mm 6 m/S 750 mmHg 98%
    06:00 +2°C° 1.4 mm 7 m/S 749 mmHg 98%
    07:00 +2°C° 2 mm 7 m/S 748 mmHg 98%
    08:00 +2°C° 2 mm 7 m/S 747 mmHg 99%
    09:00 +1°C° 2 mm 8 m/S 746 mmHg 99%
    10:00 +1°C° 2.2 mm 8 m/S 746 mmHg 99%
    11:00 +1°C° 2.2 mm 8 m/S 745 mmHg 98%
    12:00 +2°C° 2.2 mm 7 m/S 744 mmHg 98%
    13:00 +2°C° 0.8 mm 7 m/S 744 mmHg 98%
    14:00 +1°C° 0.8 mm 8 m/S 744 mmHg 97%
    15:00 +1°C° 0.8 mm 8 m/S 744 mmHg 96%
    16:00 +1°C° 0.4 mm 8 m/S 743 mmHg 95%
    17:00 0°C° 0.4 mm 8 m/S 743 mmHg 94%
    18:00 0°C° 0.4 mm 9 m/S 743 mmHg 93%
    19:00 -1°C° 0.3 mm 8 m/S 743 mmHg 93%
    20:00 -1°C° 0.3 mm 8 m/S 743 mmHg 93%
    21:00 -2°C° 0.3 mm 7 m/S 743 mmHg 93%
    22:00 -2°C° 0.1 mm 8 m/S 742 mmHg 92%
    23:00 -4°C° 0.1 mm 8 m/S 741 mmHg 91%

    übermorgen, 2 April, Donnerstag

    Zeit Temperatur Niederschläge Wind Luftdruck Luftfeuchtigkeit
    00:00 -5°C° 0.1 mm 9 m/S 740 mmHg 91%
    01:00 -4°C° 1 mm 9 m/S 738 mmHg 92%
    02:00 -4°C° 1 mm 10 m/S 735 mmHg 93%
    03:00 -4°C° 1 mm 11 m/S 733 mmHg 94%
    04:00 -5°C° 2.8 mm 12 m/S 731 mmHg 92%
    05:00 -5°C° 2.8 mm 13 m/S 730 mmHg 89%
    06:00 -5°C° 2.8 mm 14 m/S 729 mmHg 87%
    07:00 -5°C° 0.5 mm 14 m/S 729 mmHg 85%
    08:00 -5°C° 0.5 mm 13 m/S 729 mmHg 83%
    09:00 -6°C° 0.5 mm 13 m/S 729 mmHg 81%
    10:00 -5°C° 1.1 mm 13 m/S 729 mmHg 84%
    11:00 -5°C° 1.1 mm 13 m/S 729 mmHg 87%
    12:00 -5°C° 1.1 mm 13 m/S 729 mmHg 90%
    13:00 -3°C° 1.3 mm 12 m/S 729 mmHg 88%
    14:00 -3°C° 1.3 mm 11 m/S 730 mmHg 85%
    15:00 -3°C° 1.3 mm 9 m/S 730 mmHg 83%
    16:00 -3°C° 0.8 mm 10 m/S 731 mmHg 83%
    17:00 -3°C° 0.8 mm 10 m/S 732 mmHg 84%
    18:00 -3°C° 0.8 mm 10 m/S 733 mmHg 85%
    19:00 -3°C° 0.9 mm 9 m/S 734 mmHg 86%
    20:00 -2°C° 0.9 mm 8 m/S 734 mmHg 88%
    21:00 -3°C° 0.9 mm 7 m/S 735 mmHg 89%
    22:00 -3°C° 1.3 mm 7 m/S 736 mmHg 92%
    23:00 -3°C° 1.3 mm 7 m/S 737 mmHg 94%

    3 April, Freitag

    Zeit Temperatur Niederschläge Wind Luftdruck Luftfeuchtigkeit
    00:00 -3°C° 1.3 mm 6 m/S 737 mmHg 97%
    01:00 -4°C° 1.7 mm 5 m/S 738 mmHg 96%
    02:00 -4°C° 1.7 mm 5 m/S 739 mmHg 96%
    03:00 -4°C° 1.7 mm 4 m/S 739 mmHg 95%
    04:00 -3°C° 1.6 mm 4 m/S 740 mmHg 94%
    05:00 -4°C° 1.6 mm 5 m/S 740 mmHg 92%
    06:00 -4°C° 1.6 mm 5 m/S 741 mmHg 91%
    07:00 -4°C° 0.8 mm 6 m/S 741 mmHg 89%
    08:00 -3°C° 0.8 mm 6 m/S 741 mmHg 87%
    09:00 -3°C° 0.8 mm 6 m/S 742 mmHg 84%
    10:00 -3°C° 2.5 mm 7 m/S 743 mmHg 86%
    11:00 -3°C° 2.5 mm 7 m/S 744 mmHg 88%
    12:00 -4°C° 2.5 mm 7 m/S 744 mmHg 90%
    13:00 -4°C° 1.1 mm 7 m/S 745 mmHg 89%
    14:00 -4°C° 1.1 mm 7 m/S 746 mmHg 88%
    15:00 -4°C° 1.1 mm 7 m/S 747 mmHg 88%
    16:00 -4°C° 0.7 mm 7 m/S 748 mmHg 89%
    17:00 -6°C° 0.7 mm 7 m/S 749 mmHg 89%
    18:00 -5°C° 0.7 mm 6 m/S 749 mmHg 90%
    19:00 -6°C° 0.5 mm 6 m/S 750 mmHg 90%
    20:00 -6°C° 0.5 mm 6 m/S 751 mmHg 90%
    21:00 -6°C° 0.5 mm 6 m/S 751 mmHg 90%
    22:00 -6°C° 0.5 mm 6 m/S 752 mmHg 90%
    23:00 -6°C° 0.5 mm 6 m/S 752 mmHg 89%

    4 April, Samstag

    Zeit Temperatur Niederschläge Wind Luftdruck Luftfeuchtigkeit
    00:00 -6°C° 0.5 mm 6 m/S 753 mmHg 89%
    01:00 -6°C° 0.6 mm 6 m/S 753 mmHg 90%
    02:00 -8°C° 0.6 mm 6 m/S 754 mmHg 90%
    03:00 -8°C° 0.6 mm 6 m/S 754 mmHg 91%
    04:00 -6°C° 0.5 mm 6 m/S 755 mmHg 91%
    05:00 -6°C° 0.5 mm 6 m/S 755 mmHg 91%
    06:00 -6°C° 0.5 mm 6 m/S 756 mmHg 91%
    07:00 -5°C° 0.3 mm 5 m/S 756 mmHg 88%
    08:00 -5°C° 0.3 mm 5 m/S 757 mmHg 85%
    09:00 -4°C° 0.3 mm 5 m/S 757 mmHg 82%
    10:00 -4°C° 0.1 mm 5 m/S 758 mmHg 80%
    11:00 -2°C° 0.1 mm 5 m/S 758 mmHg 77%
    12:00 -2°C° 0.1 mm 5 m/S 758 mmHg 75%
    13:00 -1°C° 0 mm 5 m/S 758 mmHg 73%
    14:00 -1°C° 0 mm 4 m/S 758 mmHg 72%
    15:00 0°C° 0 mm 3 m/S 758 mmHg 70%
    16:00 -2°C° 0.1 mm 4 m/S 757 mmHg 76%
    17:00 -2°C° 0.1 mm 4 m/S 756 mmHg 82%
    18:00 -3°C° 0.1 mm 4 m/S 756 mmHg 88%
    19:00 -4°C° 0.3 mm 5 m/S 755 mmHg 89%
    20:00 -4°C° 0.3 mm 5 m/S 755 mmHg 89%
    21:00 -4°C° 0.3 mm 5 m/S 754 mmHg 89%
    22:00 -4°C° 0 mm 5 m/S 754 mmHg 88%
    23:00 -4°C° 0 mm 5 m/S 753 mmHg 87%

    5 April, Sonntag

    Zeit Temperatur Niederschläge Wind Luftdruck Luftfeuchtigkeit
    00:00 -4°C° 0 mm 5 m/S 753 mmHg 85%
    01:00 -4°C° 0.2 mm 6 m/S 752 mmHg 86%
    02:00 -4°C° 0.2 mm 6 m/S 752 mmHg 87%
    03:00 -4°C° 0.2 mm 6 m/S 751 mmHg 87%
    04:00 -3°C° 0.3 mm 6 m/S 750 mmHg 88%
    05:00 -3°C° 0.3 mm 6 m/S 750 mmHg 88%
    06:00 -3°C° 0.3 mm 6 m/S 749 mmHg 89%
    07:00 -2°C° 0.4 mm 6 m/S 749 mmHg 91%
    08:00 -1°C° 0.4 mm 7 m/S 748 mmHg 93%
    09:00 0°C° 0.4 mm 8 m/S 748 mmHg 95%
    10:00 +2°C° 0.2 mm 7 m/S 747 mmHg 96%
    11:00 +2°C° 0.2 mm 7 m/S 747 mmHg 97%
    12:00 +3°C° 0.2 mm 7 m/S 746 mmHg 98%
    13:00 +3°C° 0.1 mm 7 m/S 746 mmHg 98%
    14:00 +3°C° 0.1 mm 7 m/S 746 mmHg 98%
    15:00 +4°C° 0.1 mm 7 m/S 746 mmHg 98%
    16:00 +4°C° 0.3 mm 7 m/S 746 mmHg 98%
    17:00 +4°C° 0.3 mm 8 m/S 746 mmHg 98%
    18:00 +4°C° 0.3 mm 8 m/S 747 mmHg 98%
    19:00 +4°C° 0 mm 7 m/S 747 mmHg 95%
    20:00 +4°C° 0 mm 7 m/S 747 mmHg 92%
    21:00 +3°C° 0 mm 7 m/S 747 mmHg 88%
    22:00 +3°C° 0 mm 7 m/S 747 mmHg 88%
    23:00 +4°C° 0 mm 7 m/S 747 mmHg 87%
    Mehr zeigen